owner,sensor,date,latitude,longitude,vertical_datum,sea_water_practical_salinity,qcFlag 
LUMCON,ioos:station:LUMCON:101:1,2017-01-01T00:00:00Z,29.2533,-90.6633,1.56,18.42,1111122 
LUMCON,ioos:station:LUMCON:101:1,2017-01-01T00:15:00Z,29.2533,-90.6633,1.57,18.42,1111122 
LUMCON,ioos:station:LUMCON:101:1,2017-01-01T00:30:00Z,29.2533,-90.6633,1.58,18.47,1111122 
LUMCON,ioos:station:LUMCON:101:1,2017-01-01T00:45:00Z,29.2533,-90.6633,1.59,18.47,1111122 
LUMCON,ioos:station:LUMCON:101:1,2017-01-01T01:00:00Z,29.2533,-90.6633,1.6,18.53,1111122 
LUMCON,ioos:station:LUMCON:101:1,2017-01-01T01:15:00Z,29.2533,-90.6633,1.61,18.56,1111122 
LUMCON,ioos:station:LUMCON:101:1,2017-01-01T01:30:00Z,29.2533,-90.6633,1.61,18.58,1111122 
LUMCON,ioos:station:LUMCON:101:1,2017-01-01T01:45:00Z,29.2533,-90.6633,1.62,18.61,1111122 
LUMCON,ioos:station:LUMCON:101:1,2017-01-01T02:00:00Z,29.2533,-90.6633,1.62,18.62,1111122 
LUMCON,ioos:station:LUMCON:101:1,2017-01-01T02:15:00Z,29.2533,-90.6633,1.63,18.64,1111122 
LUMCON,ioos:station:LUMCON:101:1,2017-01-01T02:30:00Z,29.2533,-90.6633,1.63,18.62,1111122 
LUMCON,ioos:station:LUMCON:101:1,2017-01-01T02:45:00Z,29.2533,-90.6633,1.63,18.76,1111122 
LUMCON,ioos:station:LUMCON:101:1,2017-01-01T03:00:00Z,29.2533,-90.6633,1.64,18.75,1111122 
LUMCON,ioos:station:LUMCON:101:1,2017-01-01T03:15:00Z,29.2533,-90.6633,1.63,18.76,1111122 
LUMCON,ioos:station:LUMCON:101:1,2017-01-01T03:30:00Z,29.2533,-90.6633,1.63,18.72,1111122 
LUMCON,ioos:station:LUMCON:101:1,2017-01-01T03:45:00Z,29.2533,-90.6633,1.63,18.86,1111122 
LUMCON,ioos:station:LUMCON:101:1,2017-01-01T04:00:00Z,29.2533,-90.6633,1.66,18.95,1111122 
LUMCON,ioos:station:LUMCON:101:1,2017-01-01T04:15:00Z,29.2533,-90.6633,1.66,19.07,1111122 
LUMCON,ioos:station:LUMCON:101:1,2017-01-01T04:30:00Z,29.2533,-90.6633,1.66,18.88,1111122 
LUMCON,ioos:station:LUMCON:101:1,2017-01-01T04:45:00Z,29.2533,-90.6633,1.66,18.75,1111122 
LUMCON,ioos:station:LUMCON:101:1,2017-01-01T05:00:00Z,29.2533,-90.6633,1.67,18.86,1111122 
LUMCON,ioos:station:LUMCON:101:1,2017-01-01T05:15:00Z,29.2533,-90.6633,1.66,18.94,1111122 
LUMCON,ioos:station:LUMCON:101:1,2017-01-01T05:30:00Z,29.2533,-90.6633,1.65,19.04,1111122 
LUMCON,ioos:station:LUMCON:101:1,2017-01-01T05:45:00Z,29.2533,-90.6633,1.64,19.06,1111122 
LUMCON,ioos:station:LUMCON:101:1,2017-01-01T06:00:00Z,29.2533,-90.6633,1.64,19.03,1111122 
LUMCON,ioos:station:LUMCON:101:1,2017-01-01T06:15:00Z,29.2533,-90.6633,1.63,18.91,1111122 
LUMCON,ioos:station:LUMCON:101:1,2017-01-01T06:30:00Z,29.2533,-90.6633,1.62,18.74,1111122 
LUMCON,ioos:station:LUMCON:101:1,2017-01-01T06:45:00Z,29.2533,-90.6633,1.61,18.75,1111122 
LUMCON,ioos:station:LUMCON:101:1,2017-01-01T07:00:00Z,29.2533,-90.6633,1.6,18.58,1111122 
LUMCON,ioos:station:LUMCON:101:1,2017-01-01T07:15:00Z,29.2533,-90.6633,1.59,18.41,1111122 
LUMCON,ioos:station:LUMCON:101:1,2017-01-01T07:30:00Z,29.2533,-90.6633,1.58,18.26,1111122 
LUMCON,ioos:station:LUMCON:101:1,2017-01-01T07:45:00Z,29.2533,-90.6633,1.56,18.14,1111122 
LUMCON,ioos:station:LUMCON:101:1,2017-01-01T08:00:00Z,29.2533,-90.6633,1.54,18.08,1111122 
LUMCON,ioos:station:LUMCON:101:1,2017-01-01T08:15:00Z,29.2533,-90.6633,1.53,18.02,1111122 
LUMCON,ioos:station:LUMCON:101:1,2017-01-01T08:30:00Z,29.2533,-90.6633,1.52,17.94,1111122 
LUMCON,ioos:station:LUMCON:101:1,2017-01-01T08:45:00Z,29.2533,-90.6633,1.52,17.86,1111122 
LUMCON,ioos:station:LUMCON:101:1,2017-01-01T09:00:00Z,29.2533,-90.6633,1.51,17.79,1111122 
LUMCON,ioos:station:LUMCON:101:1,2017-01-01T09:15:00Z,29.2533,-90.6633,1.5,17.75,1111122 
LUMCON,ioos:station:LUMCON:101:1,2017-01-01T09:30:00Z,29.2533,-90.6633,1.49,17.65,1111122 
LUMCON,ioos:station:LUMCON:101:1,2017-01-01T09:45:00Z,29.2533,-90.6633,1.48,17.56,1111122 
LUMCON,ioos:station:LUMCON:101:1,2017-01-01T10:00:00Z,29.2533,-90.6633,1.46,17.46,1111122 
LUMCON,ioos:station:LUMCON:101:1,2017-01-01T10:15:00Z,29.2533,-90.6633,1.44,17.36,1111122 
LUMCON,ioos:station:LUMCON:101:1,2017-01-01T10:30:00Z,29.2533,-90.6633,1.43,17.24,1111122 
LUMCON,ioos:station:LUMCON:101:1,2017-01-01T10:45:00Z,29.2533,-90.6633,1.42,17.14,1111122 
LUMCON,ioos:station:LUMCON:101:1,2017-01-01T11:00:00Z,29.2533,-90.6633,1.4,17.05,1111122 
LUMCON,ioos:station:LUMCON:101:1,2017-01-01T11:15:00Z,29.2533,-90.6633,1.39,16.95,1111122 
LUMCON,ioos:station:LUMCON:101:1,2017-01-01T11:30:00Z,29.2533,-90.6633,1.37,16.84,1111122 
LUMCON,ioos:station:LUMCON:101:1,2017-01-01T11:45:00Z,29.2533,-90.6633,1.36,16.76,1111122 
LUMCON,ioos:station:LUMCON:101:1,2017-01-01T12:00:00Z,29.2533,-90.6633,1.34,16.64,1111122 
LUMCON,ioos:station:LUMCON:101:1,2017-01-01T12:15:00Z,29.2533,-90.6633,1.33,16.58,1111122 
LUMCON,ioos:station:LUMCON:101:1,2017-01-01T12:30:00Z,29.2533,-90.6633,1.32,16.53,1111122 
LUMCON,ioos:station:LUMCON:101:1,2017-01-01T12:45:00Z,29.2533,-90.6633,1.31,16.53,1111122 
LUMCON,ioos:station:LUMCON:101:1,2017-01-01T13:00:00Z,29.2533,-90.6633,1.3,16.4,1111122 
LUMCON,ioos:station:LUMCON:101:1,2017-01-01T13:15:00Z,29.2533,-90.6633,1.3,16.44,1111122 
LUMCON,ioos:station:LUMCON:101:1,2017-01-01T13:30:00Z,29.2533,-90.6633,1.3,16.36,1111122 
LUMCON,ioos:station:LUMCON:101:1,2017-01-01T13:45:00Z,29.2533,-90.6633,1.29,16.35,1111122 
LUMCON,ioos:station:LUMCON:101:1,2017-01-01T14:00:00Z,29.2533,-90.6633,1.29,16.27,1111122 
LUMCON,ioos:station:LUMCON:101:1,2017-01-01T14:15:00Z,29.2533,-90.6633,1.28,16.23,1111122 
LUMCON,ioos:station:LUMCON:101:1,2017-01-01T14:30:00Z,29.2533,-90.6633,1.27,16.2,1111122 
LUMCON,ioos:station:LUMCON:101:1,2017-01-01T14:45:00Z,29.2533,-90.6633,1.26,16.2,1111122 
LUMCON,ioos:station:LUMCON:101:1,2017-01-01T15:00:00Z,29.2533,-90.6633,1.27,16.14,1111122 
LUMCON,ioos:station:LUMCON:101:1,2017-01-01T15:15:00Z,29.2533,-90.6633,1.27,16.11,1111122 
LUMCON,ioos:station:LUMCON:101:1,2017-01-01T15:30:00Z,29.2533,-90.6633,1.25,16.12,1111122 
LUMCON,ioos:station:LUMCON:101:1,2017-01-01T15:45:00Z,29.2533,-90.6633,1.24,16.1,1111122 
LUMCON,ioos:station:LUMCON:101:1,2017-01-01T16:00:00Z,29.2533,-90.6633,1.22,16.1,1111122 
LUMCON,ioos:station:LUMCON:101:1,2017-01-01T16:15:00Z,29.2533,-90.6633,1.2,16.1,1111122 
LUMCON,ioos:station:LUMCON:101:1,2017-01-01T16:30:00Z,29.2533,-90.6633,1.2,16.11,1111122 
LUMCON,ioos:station:LUMCON:101:1,2017-01-01T16:45:00Z,29.2533,-90.6633,1.21,16.09,1111122 
LUMCON,ioos:station:LUMCON:101:1,2017-01-01T17:00:00Z,29.2533,-90.6633,1.22,16.09,1111122 
LUMCON,ioos:station:LUMCON:101:1,2017-01-01T17:15:00Z,29.2533,-90.6633,1.22,16.13,1111122 
LUMCON,ioos:station:LUMCON:101:1,2017-01-01T17:30:00Z,29.2533,-90.6633,1.22,16.13,1111122 
LUMCON,ioos:station:LUMCON:101:1,2017-01-01T17:45:00Z,29.2533,-90.6633,1.23,16.18,1111122 
LUMCON,ioos:station:LUMCON:101:1,2017-01-01T18:00:00Z,29.2533,-90.6633,1.23,16.26,1111122 
LUMCON,ioos:station:LUMCON:101:1,2017-01-01T18:15:00Z,29.2533,-90.6633,1.24,16.35,1111122 
LUMCON,ioos:station:LUMCON:101:1,2017-01-01T18:30:00Z,29.2533,-90.6633,1.25,16.32,1111122 
LUMCON,ioos:station:LUMCON:101:1,2017-01-01T18:45:00Z,29.2533,-90.6633,1.26,16.29,1111122 
LUMCON,ioos:station:LUMCON:101:1,2017-01-01T19:00:00Z,29.2533,-90.6633,1.27,16.15,1111122 
LUMCON,ioos:station:LUMCON:101:1,2017-01-01T19:15:00Z,29.2533,-90.6633,1.28,16.05,1111122 
LUMCON,ioos:station:LUMCON:101:1,2017-01-01T19:30:00Z,29.2533,-90.6633,1.29,15.97,1111122 
LUMCON,ioos:station:LUMCON:101:1,2017-01-01T19:45:00Z,29.2533,-90.6633,1.3,15.91,1111122 
LUMCON,ioos:station:LUMCON:101:1,2017-01-01T20:00:00Z,29.2533,-90.6633,1.32,16.08,1111122 
LUMCON,ioos:station:LUMCON:101:1,2017-01-01T20:15:00Z,29.2533,-90.6633,1.34,16.29,1111122 
LUMCON,ioos:station:LUMCON:101:1,2017-01-01T20:30:00Z,29.2533,-90.6633,1.36,16.38,1111122 
LUMCON,ioos:station:LUMCON:101:1,2017-01-01T20:45:00Z,29.2533,-90.6633,1.38,16.73,1111122 
LUMCON,ioos:station:LUMCON:101:1,2017-01-01T21:00:00Z,29.2533,-90.6633,1.39,16.79,1111122 
LUMCON,ioos:station:LUMCON:101:1,2017-01-01T21:15:00Z,29.2533,-90.6633,1.4,16.8,1111122 
LUMCON,ioos:station:LUMCON:101:1,2017-01-01T21:30:00Z,29.2533,-90.6633,1.41,16.96,1111122 
LUMCON,ioos:station:LUMCON:101:1,2017-01-01T21:45:00Z,29.2533,-90.6633,1.43,17.1,1111122 
LUMCON,ioos:station:LUMCON:101:1,2017-01-01T22:00:00Z,29.2533,-90.6633,1.43,17.11,1111122 
LUMCON,ioos:station:LUMCON:101:1,2017-01-01T22:15:00Z,29.2533,-90.6633,1.44,17.17,1111122 
LUMCON,ioos:station:LUMCON:101:1,2017-01-01T22:30:00Z,29.2533,-90.6633,1.45,17.16,1111122 
LUMCON,ioos:station:LUMCON:101:1,2017-01-01T22:45:00Z,29.2533,-90.6633,1.46,17.23,1111122 
LUMCON,ioos:station:LUMCON:101:1,2017-01-01T23:00:00Z,29.2533,-90.6633,1.48,17.2,1111122 
LUMCON,ioos:station:LUMCON:101:1,2017-01-01T23:15:00Z,29.2533,-90.6633,1.48,17.16,1111122 
LUMCON,ioos:station:LUMCON:101:1,2017-01-01T23:30:00Z,29.2533,-90.6633,1.47,17.28,1111122 
LUMCON,ioos:station:LUMCON:101:1,2017-01-01T23:45:00Z,29.2533,-90.6633,1.47,17.33,1111122 
LUMCON,ioos:station:LUMCON:101:1,2017-01-02T00:00:00Z,29.2533,-90.6633,1.48,17.33,1111122 
LUMCON,ioos:station:LUMCON:101:1,2017-01-02T00:15:00Z,29.2533,-90.6633,1.5,17.45,1111122 
LUMCON,ioos:station:LUMCON:101:1,2017-01-02T00:30:00Z,29.2533,-90.6633,1.51,17.4,1111122 
LUMCON,ioos:station:LUMCON:101:1,2017-01-02T00:45:00Z,29.2533,-90.6633,1.51,17.32,1111122 
LUMCON,ioos:station:LUMCON:101:1,2017-01-02T01:00:00Z,29.2533,-90.6633,1.51,17.37,1111122 
LUMCON,ioos:station:LUMCON:101:1,2017-01-02T01:15:00Z,29.2533,-90.6633,1.52,17.31,1111122 
LUMCON,ioos:station:LUMCON:101:1,2017-01-02T01:30:00Z,29.2533,-90.6633,1.52,17.25,1111122 
LUMCON,ioos:station:LUMCON:101:1,2017-01-02T01:45:00Z,29.2533,-90.6633,1.53,17.17,1111122 
LUMCON,ioos:station:LUMCON:101:1,2017-01-02T02:00:00Z,29.2533,-90.6633,1.54,17.22,1111122 
LUMCON,ioos:station:LUMCON:101:1,2017-01-02T02:15:00Z,29.2533,-90.6633,1.55,17.22,1111122 
LUMCON,ioos:station:LUMCON:101:1,2017-01-02T02:30:00Z,29.2533,-90.6633,1.55,17.2,1111122 
LUMCON,ioos:station:LUMCON:101:1,2017-01-02T02:45:00Z,29.2533,-90.6633,1.56,17.22,1111122 
LUMCON,ioos:station:LUMCON:101:1,2017-01-02T03:00:00Z,29.2533,-90.6633,1.57,17.18,1111122 
LUMCON,ioos:station:LUMCON:101:1,2017-01-02T03:15:00Z,29.2533,-90.6633,1.59,17.17,1111122 
LUMCON,ioos:station:LUMCON:101:1,2017-01-02T03:30:00Z,29.2533,-90.6633,1.59,17.18,1111122 
LUMCON,ioos:station:LUMCON:101:1,2017-01-02T03:45:00Z,29.2533,-90.6633,1.6,17.15,1111122 
LUMCON,ioos:station:LUMCON:101:1,2017-01-02T04:00:00Z,29.2533,-90.6633,1.61,17.17,1111122 
LUMCON,ioos:station:LUMCON:101:1,2017-01-02T04:15:00Z,29.2533,-90.6633,1.62,17.2,1111122 
LUMCON,ioos:station:LUMCON:101:1,2017-01-02T04:30:00Z,29.2533,-90.6633,1.63,17.27,1111122 
LUMCON,ioos:station:LUMCON:101:1,2017-01-02T04:45:00Z,29.2533,-90.6633,1.63,17.26,1111122 
LUMCON,ioos:station:LUMCON:101:1,2017-01-02T05:00:00Z,29.2533,-90.6633,1.64,17.3,1111122 
LUMCON,ioos:station:LUMCON:101:1,2017-01-02T05:15:00Z,29.2533,-90.6633,1.63,17.35,1111122 
LUMCON,ioos:station:LUMCON:101:1,2017-01-02T05:30:00Z,29.2533,-90.6633,1.63,17.45,1111122 
LUMCON,ioos:station:LUMCON:101:1,2017-01-02T05:45:00Z,29.2533,-90.6633,1.63,17.48,1111122 
LUMCON,ioos:station:LUMCON:101:1,2017-01-02T06:00:00Z,29.2533,-90.6633,1.63,17.52,1111122 
LUMCON,ioos:station:LUMCON:101:1,2017-01-02T06:15:00Z,29.2533,-90.6633,1.61,17.63,1111122 
LUMCON,ioos:station:LUMCON:101:1,2017-01-02T06:30:00Z,29.2533,-90.6633,1.6,17.48,1111122 
LUMCON,ioos:station:LUMCON:101:1,2017-01-02T06:45:00Z,29.2533,-90.6633,1.59,17.37,1111122 
LUMCON,ioos:station:LUMCON:101:1,2017-01-02T07:00:00Z,29.2533,-90.6633,1.59,17.42,1111122 
LUMCON,ioos:station:LUMCON:101:1,2017-01-02T07:15:00Z,29.2533,-90.6633,1.6,17.41,1111122 
LUMCON,ioos:station:LUMCON:101:1,2017-01-02T07:30:00Z,29.2533,-90.6633,1.58,17.45,1111122 
LUMCON,ioos:station:LUMCON:101:1,2017-01-02T07:45:00Z,29.2533,-90.6633,1.58,17.43,1111122 
LUMCON,ioos:station:LUMCON:101:1,2017-01-02T08:00:00Z,29.2533,-90.6633,1.57,17.4,1111122 
LUMCON,ioos:station:LUMCON:101:1,2017-01-02T08:15:00Z,29.2533,-90.6633,1.56,17.33,1111122 
LUMCON,ioos:station:LUMCON:101:1,2017-01-02T08:30:00Z,29.2533,-90.6633,1.55,17.3,1111122 
LUMCON,ioos:station:LUMCON:101:1,2017-01-02T08:45:00Z,29.2533,-90.6633,1.55,17.24,1111122 
LUMCON,ioos:station:LUMCON:101:1,2017-01-02T09:00:00Z,29.2533,-90.6633,1.53,17.18,1111122 
LUMCON,ioos:station:LUMCON:101:1,2017-01-02T09:15:00Z,29.2533,-90.6633,1.52,17.17,1111122 
LUMCON,ioos:station:LUMCON:101:1,2017-01-02T09:30:00Z,29.2533,-90.6633,1.51,17.16,1111122 
LUMCON,ioos:station:LUMCON:101:1,2017-01-02T09:45:00Z,29.2533,-90.6633,1.5,17.12,1111122 
LUMCON,ioos:station:LUMCON:101:1,2017-01-02T10:00:00Z,29.2533,-90.6633,1.49,17.08,1111122 
LUMCON,ioos:station:LUMCON:101:1,2017-01-02T10:15:00Z,29.2533,-90.6633,1.48,17.04,1111122 
LUMCON,ioos:station:LUMCON:101:1,2017-01-02T10:30:00Z,29.2533,-90.6633,1.46,17.01,1111122 
LUMCON,ioos:station:LUMCON:101:1,2017-01-02T10:45:00Z,29.2533,-90.6633,1.45,16.96,1111122 
LUMCON,ioos:station:LUMCON:101:1,2017-01-02T11:00:00Z,29.2533,-90.6633,1.44,16.9,1111122 
LUMCON,ioos:station:LUMCON:101:1,2017-01-02T11:15:00Z,29.2533,-90.6633,1.43,16.85,1111122 
LUMCON,ioos:station:LUMCON:101:1,2017-01-02T11:30:00Z,29.2533,-90.6633,1.42,16.8,1111122 
LUMCON,ioos:station:LUMCON:101:1,2017-01-02T11:45:00Z,29.2533,-90.6633,1.4,16.73,1111122 
LUMCON,ioos:station:LUMCON:101:1,2017-01-02T12:00:00Z,29.2533,-90.6633,1.39,16.64,1111122 
LUMCON,ioos:station:LUMCON:101:1,2017-01-02T12:15:00Z,29.2533,-90.6633,1.38,16.55,1111122 
LUMCON,ioos:station:LUMCON:101:1,2017-01-02T12:30:00Z,29.2533,-90.6633,1.37,16.47,1111122 
LUMCON,ioos:station:LUMCON:101:1,2017-01-02T12:45:00Z,29.2533,-90.6633,1.36,16.37,1111122 
LUMCON,ioos:station:LUMCON:101:1,2017-01-02T13:00:00Z,29.2533,-90.6633,1.35,16.28,1111122 
LUMCON,ioos:station:LUMCON:101:1,2017-01-02T13:15:00Z,29.2533,-90.6633,1.34,16.21,1111122 
LUMCON,ioos:station:LUMCON:101:1,2017-01-02T13:30:00Z,29.2533,-90.6633,1.34,16.14,1111122 
LUMCON,ioos:station:LUMCON:101:1,2017-01-02T13:45:00Z,29.2533,-90.6633,1.34,16.09,1111122 
LUMCON,ioos:station:LUMCON:101:1,2017-01-02T14:00:00Z,29.2533,-90.6633,1.33,16.04,1111122 
LUMCON,ioos:station:LUMCON:101:1,2017-01-02T14:15:00Z,29.2533,-90.6633,1.31,16.0,1111122 
LUMCON,ioos:station:LUMCON:101:1,2017-01-02T14:30:00Z,29.2533,-90.6633,1.3,15.94,1111122 
LUMCON,ioos:station:LUMCON:101:1,2017-01-02T14:45:00Z,29.2533,-90.6633,1.29,15.9,1111122 
LUMCON,ioos:station:LUMCON:101:1,2017-01-02T15:00:00Z,29.2533,-90.6633,1.27,15.85,1111122 
LUMCON,ioos:station:LUMCON:101:1,2017-01-02T15:15:00Z,29.2533,-90.6633,1.27,15.8,1111122 
LUMCON,ioos:station:LUMCON:101:1,2017-01-02T15:30:00Z,29.2533,-90.6633,1.26,15.78,1111122 
LUMCON,ioos:station:LUMCON:101:1,2017-01-02T15:45:00Z,29.2533,-90.6633,1.26,15.8,1111122 
LUMCON,ioos:station:LUMCON:101:1,2017-01-02T16:00:00Z,29.2533,-90.6633,1.25,15.82,1111122 
LUMCON,ioos:station:LUMCON:101:1,2017-01-02T16:15:00Z,29.2533,-90.6633,1.26,15.83,1111122 
LUMCON,ioos:station:LUMCON:101:1,2017-01-02T16:30:00Z,29.2533,-90.6633,1.26,15.94,1111122 
LUMCON,ioos:station:LUMCON:101:1,2017-01-02T16:45:00Z,29.2533,-90.6633,1.26,16.28,1111122 
LUMCON,ioos:station:LUMCON:101:1,2017-01-02T17:00:00Z,29.2533,-90.6633,1.27,16.33,1111122 
LUMCON,ioos:station:LUMCON:101:1,2017-01-02T17:15:00Z,29.2533,-90.6633,1.28,16.33,1111122 
LUMCON,ioos:station:LUMCON:101:1,2017-01-02T17:30:00Z,29.2533,-90.6633,1.28,16.33,1111122 
LUMCON,ioos:station:LUMCON:101:1,2017-01-02T17:45:00Z,29.2533,-90.6633,1.27,16.33,1111122 
LUMCON,ioos:station:LUMCON:101:1,2017-01-02T18:00:00Z,29.2533,-90.6633,1.27,16.36,1111122 
LUMCON,ioos:station:LUMCON:101:1,2017-01-02T18:15:00Z,29.2533,-90.6633,1.27,16.39,1111122 
LUMCON,ioos:station:LUMCON:101:1,2017-01-02T18:30:00Z,29.2533,-90.6633,1.28,16.42,1111122 
LUMCON,ioos:station:LUMCON:101:1,2017-01-02T18:45:00Z,29.2533,-90.6633,1.29,16.51,1111122 
LUMCON,ioos:station:LUMCON:101:1,2017-01-02T19:00:00Z,29.2533,-90.6633,1.3,16.63,1111122 
LUMCON,ioos:station:LUMCON:101:1,2017-01-02T19:15:00Z,29.2533,-90.6633,1.31,16.69,1111122 
LUMCON,ioos:station:LUMCON:101:1,2017-01-02T19:30:00Z,29.2533,-90.6633,1.32,16.78,1111122 
LUMCON,ioos:station:LUMCON:101:1,2017-01-02T19:45:00Z,29.2533,-90.6633,1.34,16.88,1111122 
LUMCON,ioos:station:LUMCON:101:1,2017-01-02T20:00:00Z,29.2533,-90.6633,1.35,16.91,1111122 
LUMCON,ioos:station:LUMCON:101:1,2017-01-02T20:15:00Z,29.2533,-90.6633,1.35,16.94,1111122 
LUMCON,ioos:station:LUMCON:101:1,2017-01-02T20:30:00Z,29.2533,-90.6633,1.36,17.0,1111122 
LUMCON,ioos:station:LUMCON:101:1,2017-01-02T20:45:00Z,29.2533,-90.6633,1.35,16.99,1111122 
LUMCON,ioos:station:LUMCON:101:1,2017-01-02T21:00:00Z,29.2533,-90.6633,1.36,17.01,1111122 
LUMCON,ioos:station:LUMCON:101:1,2017-01-02T21:15:00Z,29.2533,-90.6633,1.37,17.03,1111122 
LUMCON,ioos:station:LUMCON:101:1,2017-01-02T21:30:00Z,29.2533,-90.6633,1.37,17.07,1111122 
LUMCON,ioos:station:LUMCON:101:1,2017-01-02T21:45:00Z,29.2533,-90.6633,1.39,17.06,1111122 
LUMCON,ioos:station:LUMCON:101:1,2017-01-02T22:00:00Z,29.2533,-90.6633,1.41,16.99,1111122 
LUMCON,ioos:station:LUMCON:101:1,2017-01-02T22:15:00Z,29.2533,-90.6633,1.44,16.83,1111122 
LUMCON,ioos:station:LUMCON:101:1,2017-01-02T22:30:00Z,29.2533,-90.6633,1.4,16.8,1111122 
LUMCON,ioos:station:LUMCON:101:1,2017-01-02T22:45:00Z,29.2533,-90.6633,1.41,17.0,1111122 
LUMCON,ioos:station:LUMCON:101:1,2017-01-02T23:00:00Z,29.2533,-90.6633,1.38,17.05,1111122 
LUMCON,ioos:station:LUMCON:101:1,2017-01-02T23:15:00Z,29.2533,-90.6633,1.36,16.81,1111122 
LUMCON,ioos:station:LUMCON:101:1,2017-01-02T23:30:00Z,29.2533,-90.6633,1.36,16.65,1111122 
LUMCON,ioos:station:LUMCON:101:1,2017-01-02T23:45:00Z,29.2533,-90.6633,1.38,16.6,1111122 
LUMCON,ioos:station:LUMCON:101:1,2017-01-03T00:00:00Z,29.2533,-90.6633,1.4,16.58,1111122 
LUMCON,ioos:station:LUMCON:101:1,2017-01-03T00:15:00Z,29.2533,-90.6633,1.43,16.67,1111122 
LUMCON,ioos:station:LUMCON:101:1,2017-01-03T00:30:00Z,29.2533,-90.6633,1.43,16.6,1111122 
LUMCON,ioos:station:LUMCON:101:1,2017-01-03T00:45:00Z,29.2533,-90.6633,1.41,16.62,1111122 
LUMCON,ioos:station:LUMCON:101:1,2017-01-03T01:00:00Z,29.2533,-90.6633,1.41,16.62,1111122 
LUMCON,ioos:station:LUMCON:101:1,2017-01-03T01:15:00Z,29.2533,-90.6633,1.4,16.6,1111122 
LUMCON,ioos:station:LUMCON:101:1,2017-01-03T01:30:00Z,29.2533,-90.6633,1.39,16.61,1111122 
LUMCON,ioos:station:LUMCON:101:1,2017-01-03T01:45:00Z,29.2533,-90.6633,1.37,16.6,1111122 
LUMCON,ioos:station:LUMCON:101:1,2017-01-03T02:00:00Z,29.2533,-90.6633,1.37,16.54,1111122 
LUMCON,ioos:station:LUMCON:101:1,2017-01-03T02:15:00Z,29.2533,-90.6633,1.39,16.57,1111122 
LUMCON,ioos:station:LUMCON:101:1,2017-01-03T02:30:00Z,29.2533,-90.6633,1.39,16.49,1111122 
LUMCON,ioos:station:LUMCON:101:1,2017-01-03T02:45:00Z,29.2533,-90.6633,1.4,16.48,1111122 
LUMCON,ioos:station:LUMCON:101:1,2017-01-03T03:00:00Z,29.2533,-90.6633,1.39,16.53,1111122 
LUMCON,ioos:station:LUMCON:101:1,2017-01-03T03:15:00Z,29.2533,-90.6633,1.39,16.53,1111122 
LUMCON,ioos:station:LUMCON:101:1,2017-01-03T03:30:00Z,29.2533,-90.6633,1.4,16.52,1111122 
LUMCON,ioos:station:LUMCON:101:1,2017-01-03T03:45:00Z,29.2533,-90.6633,1.42,16.53,1111122 
LUMCON,ioos:station:LUMCON:101:1,2017-01-03T04:00:00Z,29.2533,-90.6633,1.43,16.54,1111122 
LUMCON,ioos:station:LUMCON:101:1,2017-01-03T04:15:00Z,29.2533,-90.6633,1.44,16.43,1111122 
LUMCON,ioos:station:LUMCON:101:1,2017-01-03T04:30:00Z,29.2533,-90.6633,1.44,16.46,1111122 
LUMCON,ioos:station:LUMCON:101:1,2017-01-03T04:45:00Z,29.2533,-90.6633,1.43,16.46,1111122 
LUMCON,ioos:station:LUMCON:101:1,2017-01-03T05:00:00Z,29.2533,-90.6633,1.43,16.47,1111122 
LUMCON,ioos:station:LUMCON:101:1,2017-01-03T05:15:00Z,29.2533,-90.6633,1.43,16.46,1111122 
LUMCON,ioos:station:LUMCON:101:1,2017-01-03T05:30:00Z,29.2533,-90.6633,1.44,16.55,1111122 
LUMCON,ioos:station:LUMCON:101:1,2017-01-03T05:45:00Z,29.2533,-90.6633,1.43,16.56,1111122 
LUMCON,ioos:station:LUMCON:101:1,2017-01-03T06:00:00Z,29.2533,-90.6633,1.41,16.51,1111122 
LUMCON,ioos:station:LUMCON:101:1,2017-01-03T06:15:00Z,29.2533,-90.6633,1.4,16.48,1111122 
LUMCON,ioos:station:LUMCON:101:1,2017-01-03T06:30:00Z,29.2533,-90.6633,1.4,16.47,1111122 
LUMCON,ioos:station:LUMCON:101:1,2017-01-03T06:45:00Z,29.2533,-90.6633,1.38,16.43,1111122 
LUMCON,ioos:station:LUMCON:101:1,2017-01-03T07:00:00Z,29.2533,-90.6633,1.37,16.39,1111122 
LUMCON,ioos:station:LUMCON:101:1,2017-01-03T07:15:00Z,29.2533,-90.6633,1.37,16.28,1111122 
LUMCON,ioos:station:LUMCON:101:1,2017-01-03T07:30:00Z,29.2533,-90.6633,1.36,16.17,1111122 
LUMCON,ioos:station:LUMCON:101:1,2017-01-03T07:45:00Z,29.2533,-90.6633,1.36,16.06,1111122 
LUMCON,ioos:station:LUMCON:101:1,2017-01-03T08:00:00Z,29.2533,-90.6633,1.36,15.96,1111122 
LUMCON,ioos:station:LUMCON:101:1,2017-01-03T08:15:00Z,29.2533,-90.6633,1.36,15.89,1111122 
LUMCON,ioos:station:LUMCON:101:1,2017-01-03T08:30:00Z,29.2533,-90.6633,1.35,15.85,1111122 
LUMCON,ioos:station:LUMCON:101:1,2017-01-03T08:45:00Z,29.2533,-90.6633,1.34,15.72,1111122 
LUMCON,ioos:station:LUMCON:101:1,2017-01-03T09:00:00Z,29.2533,-90.6633,1.34,15.66,1111122 
LUMCON,ioos:station:LUMCON:101:1,2017-01-03T09:15:00Z,29.2533,-90.6633,1.34,15.61,1111122 
LUMCON,ioos:station:LUMCON:101:1,2017-01-03T09:30:00Z,29.2533,-90.6633,1.34,15.53,1111122 
LUMCON,ioos:station:LUMCON:101:1,2017-01-03T09:45:00Z,29.2533,-90.6633,1.33,15.49,1111122 
LUMCON,ioos:station:LUMCON:101:1,2017-01-03T10:00:00Z,29.2533,-90.6633,1.32,15.43,1111122 
LUMCON,ioos:station:LUMCON:101:1,2017-01-03T10:15:00Z,29.2533,-90.6633,1.31,15.37,1111122 
LUMCON,ioos:station:LUMCON:101:1,2017-01-03T10:30:00Z,29.2533,-90.6633,1.3,15.27,1111122 
LUMCON,ioos:station:LUMCON:101:1,2017-01-03T10:45:00Z,29.2533,-90.6633,1.28,15.15,1111122 
LUMCON,ioos:station:LUMCON:101:1,2017-01-03T11:00:00Z,29.2533,-90.6633,1.27,15.13,1111122 
LUMCON,ioos:station:LUMCON:101:1,2017-01-03T11:15:00Z,29.2533,-90.6633,1.26,15.0,1111122 
LUMCON,ioos:station:LUMCON:101:1,2017-01-03T11:30:00Z,29.2533,-90.6633,1.25,15.06,1111122 
LUMCON,ioos:station:LUMCON:101:1,2017-01-03T11:45:00Z,29.2533,-90.6633,1.24,14.97,1111122 
LUMCON,ioos:station:LUMCON:101:1,2017-01-03T12:00:00Z,29.2533,-90.6633,1.24,14.95,1111122 
LUMCON,ioos:station:LUMCON:101:1,2017-01-03T12:15:00Z,29.2533,-90.6633,1.22,14.92,1111122 
LUMCON,ioos:station:LUMCON:101:1,2017-01-03T12:30:00Z,29.2533,-90.6633,1.22,14.89,1111122 
LUMCON,ioos:station:LUMCON:101:1,2017-01-03T12:45:00Z,29.2533,-90.6633,1.21,14.87,1111122 
LUMCON,ioos:station:LUMCON:101:1,2017-01-03T13:00:00Z,29.2533,-90.6633,1.22,14.9,1111122 
LUMCON,ioos:station:LUMCON:101:1,2017-01-03T13:15:00Z,29.2533,-90.6633,1.21,14.91,1111122 
LUMCON,ioos:station:LUMCON:101:1,2017-01-03T13:30:00Z,29.2533,-90.6633,1.19,14.92,1111122 
LUMCON,ioos:station:LUMCON:101:1,2017-01-03T13:45:00Z,29.2533,-90.6633,1.18,14.93,1111122 
LUMCON,ioos:station:LUMCON:101:1,2017-01-03T14:00:00Z,29.2533,-90.6633,1.16,14.93,1111122 
LUMCON,ioos:station:LUMCON:101:1,2017-01-03T14:15:00Z,29.2533,-90.6633,1.16,14.87,1111122 
LUMCON,ioos:station:LUMCON:101:1,2017-01-03T14:30:00Z,29.2533,-90.6633,1.15,14.88,1111122 
LUMCON,ioos:station:LUMCON:101:1,2017-01-03T14:45:00Z,29.2533,-90.6633,1.15,14.9,1111122 
LUMCON,ioos:station:LUMCON:101:1,2017-01-03T15:00:00Z,29.2533,-90.6633,1.16,14.85,1111122 
LUMCON,ioos:station:LUMCON:101:1,2017-01-03T15:15:00Z,29.2533,-90.6633,1.15,14.89,1111122 
LUMCON,ioos:station:LUMCON:101:1,2017-01-03T15:30:00Z,29.2533,-90.6633,1.15,14.92,1111122 
LUMCON,ioos:station:LUMCON:101:1,2017-01-03T15:45:00Z,29.2533,-90.6633,1.15,14.91,1111122 
LUMCON,ioos:station:LUMCON:101:1,2017-01-03T16:00:00Z,29.2533,-90.6633,1.13,14.92,1111122 
LUMCON,ioos:station:LUMCON:101:1,2017-01-03T16:15:00Z,29.2533,-90.6633,1.11,14.93,1111122 
LUMCON,ioos:station:LUMCON:101:1,2017-01-03T16:30:00Z,29.2533,-90.6633,1.1,14.95,1111122 
LUMCON,ioos:station:LUMCON:101:1,2017-01-03T16:45:00Z,29.2533,-90.6633,1.1,14.95,1111122 
LUMCON,ioos:station:LUMCON:101:1,2017-01-03T17:00:00Z,29.2533,-90.6633,1.09,14.93,1111122 
LUMCON,ioos:station:LUMCON:101:1,2017-01-03T17:15:00Z,29.2533,-90.6633,1.08,14.89,1111122 
LUMCON,ioos:station:LUMCON:101:1,2017-01-03T17:30:00Z,29.2533,-90.6633,1.08,14.89,1111122 